Francistown, Botswana

6:55 AM CAT on April 29, 2017 (GMT +0200)
Francistown

Weather History for FBFT - October, 2013

Change the Weather History Date:

Tuesday, October 1, 2013

  Actual Average Record
Temperature  
Mean Temperature 61 °F -  
Max Temperature 70 °F 87 °F 102 °F (2008)
Min Temperature 52 °F 62 °F 50 °F (1996)
Degree Days  
Heating Degree Days 4    
Growing Degree Days 11 (Base 50)    
Moisture  
Dew Point 46 °F    
Average Humidity 58    
Maximum Humidity 88    
Minimum Humidity 31    
Precipitation  
Precipitation 0.00 in - - ()
Sea Level Pressure  
Sea Level Pressure 30.34 in    
Wind  
Wind Speed 12 mph ()    
Max Wind Speed 18 mph    
Max Gust Speed -    
Visibility 6.2 miles    
Events      
Averages and records for this station are not official NWS values.
T = Trace of Precipitation, MM = Missing Value Source: Averaged Metar Reports

Daily Weather History Graph

Daily Weather History Graph

Search for Another Location

Airport or City:

Trip Planner

Search our weather history database for the weather conditions in past years. The results will help you decide how hot, cold, wet, or windy it might be!

Date:

Astronomy

Oct. 01, 2013 Rise Set
Actual Time 5:51 AM CAT 6:08 PM CAT
Civil Twilight 5:28 AM CAT 6:30 PM CAT
Nautical Twilight 5:02 AM CAT 6:56 PM CAT
Astronomical Twilight 4:36 AM CAT 7:22 PM CAT
Moon 3:12 AM CAT (10/1) 3:05 PM CAT (10/1)
Length of Visible Light 13h 01m
Length of Day
12h 17m
Waning Crescent, 14% of the Moon is Illuminated
Oct 1
Waning Crescent
Oct 5
New
Oct 12
First Quarter
Oct 19
Full
Oct 27
Last Quarter

Hourly Weather History & Observations

Time (CAT) Temp. Dew Point Humidity Pressure Visibility Wind Dir Wind Speed Gust Speed Precip Events Conditions
12:00 AM 53.6 °F 46.4 °F 77% 30.39 in 6.2 mi East 12.7 mph - N/A   Overcast
1:00 AM 53.6 °F 46.4 °F 77% 30.39 in - East 10.4 mph - N/A   Clear
2:00 AM 51.8 °F 44.6 °F 76% 30.36 in 6.2 mi East 16.1 mph - N/A   Scattered Clouds
3:00 AM 51.8 °F 46.4 °F 82% 30.36 in 6.2 mi East 15.0 mph - N/A   Scattered Clouds
4:00 AM 53.6 °F 48.2 °F 82% 30.36 in 6.2 mi East 10.4 mph - N/A   Mostly Cloudy
5:00 AM 53.6 °F 48.2 °F 82% 30.36 in 6.2 mi East 9.2 mph - N/A   Mostly Cloudy
6:00 AM 53.6 °F 48.2 °F 82% 30.36 in 6.2 mi East 10.4 mph - N/A   Mostly Cloudy
7:00 AM 53.6 °F 50.0 °F 88% 30.39 in 6.2 mi East 17.3 mph - N/A   Mostly Cloudy
8:00 AM 57 °F 48 °F 64%  in 6 mi East 17.3 mph - -   Partly Cloudy
8:00 AM 57.2 °F 48.2 °F 72% 30.39 in 6.2 mi East 17.3 mph - N/A   Mostly Cloudy
9:00 AM 60.8 °F 46.4 °F 59% 30.39 in 6.2 mi East 18.4 mph - N/A   Mostly Cloudy
10:00 AM 62.6 °F 46.4 °F 55% 30.42 in 6.2 mi East 17.3 mph - N/A   Mostly Cloudy
11:00 AM 64.4 °F 46.4 °F 52% 30.42 in 6.2 mi East 12.7 mph - N/A   Mostly Cloudy
12:00 PM 66.2 °F 46.4 °F 49% 30.36 in 6.2 mi East 15.0 mph - N/A   Scattered Clouds
1:00 PM 69.8 °F 44.6 °F 40% 30.33 in 6.2 mi ENE 17.3 mph - N/A   Scattered Clouds
2:00 PM 69 °F 45 °F 31%  in 6 mi East 18.4 mph - -   Partly Cloudy
2:00 PM 69.8 °F 44.6 °F 40% 30.30 in 6.2 mi East 18.4 mph - N/A   Partly Cloudy
3:00 PM 69.8 °F 44.6 °F 40% 30.27 in - North - - N/A   Partly Cloudy
4:00 PM 71.6 °F 44.6 °F 38% 30.27 in - North - - N/A   Partly Cloudy
5:00 PM 69.8 °F 44.6 °F 40% 30.27 in - ESE 15.0 mph - N/A   Clear
6:00 PM 68.0 °F 42.8 °F 40% 30.27 in - East 13.8 mph - N/A   Clear
7:00 PM 64.4 °F 42.8 °F 45% 30.30 in - ENE 9.2 mph - N/A   Clear
8:00 PM 63 °F 44 °F 39%  in 6 mi Calm Calm - -   Partly Cloudy
8:00 PM 62.6 °F 44.6 °F 52% 30.30 in - North - - N/A   Clear
9:00 PM 62.6 °F 44.6 °F 52% 30.33 in - East 10.4 mph - N/A   Clear
10:00 PM 60.8 °F 44.6 °F 55% 30.33 in - ENE 12.7 mph - N/A   Clear
11:00 PM 57.2 °F 42.8 °F 59% 30.33 in - NE 9.2 mph - N/A   Clear